Location: Lhota
(50.0887°N, 14.0116°E)
Time: 06:22:52
(UTC+00:00)

Cosmos 2221 - Pass Details

Date: 19 May 2025
Orbit: 572 x 592 km, 82.5° (Epoch: 22 June)

Event Time Altitude Azimuth Distance (km) Brightness Sun altitude
Exits shadow 20:01:26 13° 128° (SE) 1,722 4.2 -9.6°
Maximum altitude 20:03:55 20° 87° (E) 1,352 4.0 -9.8°
Drops below altitude 10° 20:07:00 10° 39° (NE) 1,897 5.2 -10.2°
Sets 20:09:37 0° 23° (NNE) 2,799 6.3 -10.4°
